Regional Weather Roundup
Issued by NWS

Home | Current Version | Previous Version | Text Only | Print | Product List | Glossary On
Versions: 1 2 3 4 5 6 7 8 9 10 11 12 13 14 15 16 17 18 19 20 21 22 23 24 25 26 27 28 29 30 31 32 33 34 35 36 37 38 39 40 41 42 43 44 45 46 47 48 49 50
000
ASUS43 KMKX 180259
RWRWI

WISCONSIN REGIONAL WEATHER ROUNDUP
NATIONAL WEATHER SERVICE MILWAUKEE/SULLIVAN WI
900 PM CST WED JAN 17 2018

NOTE: "FAIR" INDICATES FEW OR NO CLOUDS BELOW 12,000 FEET WITH NO
SIGNIFICANT WEATHER AND/OR OBSTRUCTIONS TO VISIBILITY.

WIZ001-002-006>008-014>016-023>028-180400-
NORTHWEST WISCONSIN

CITY           SKY/WX    TMP DP  RH WIND       PRES   REMARKS
SUPERIOR ARPT  FAIR      24  12  61 SW13      29.90F WCI  12
ASHLAND        NOT AVBL
HAYWARD        FAIR      19   9  65 SW8       29.93F WCI   9
SIREN          FAIR      25  15  66 W15G22    29.97S WCI  12
CUMBERLAND     FAIR      21  12  68 SW14      29.97F WCI   8
RICE LAKE      FAIR      23  14  69 SW13      30.00F WCI  11
CHETEK         FAIR      22  13  68 W7        30.00F WCI  14
LADYSMITH      FAIR      20  11  68 SW7       29.99F WCI  11
EAU CLAIRE     NOT AVBL
MENOMONIE      FAIR      24  15  67 SW8       30.05F WCI  15
NEW RICHMOND   FAIR      21  13  71 SW8       30.03F WCI  11
OSCEOLA        FAIR      24  15  68 SW9       30.06F WCI  14
$$

WIZ003>005-009-010-017-018-180400-
NORTH CENTRAL WISCONSIN

CITY           SKY/WX    TMP DP  RH WIND       PRES   REMARKS
MANITOWISH WTR FAIR      19   8  62 SW9G17    29.88S WCI   7
ARBOR VITAE    FAIR      22  11  64 W8        29.88F WCI  12
WOODRUFF       FAIR      22  11  64 W8        29.88F WCI  12
RHINELANDER    FAIR      20  11  68 W16G23    29.89F WCI   6
EAGLE RIVER    FAIR      19   9  63 W14       29.87S WCI   6
LAND O LAKES   FAIR      20  10  64 W9        29.87S WCI  10
PHILLIPS       FAIR      19  10  68 SW13G20   29.92F WCI   5
TOMAHAWK       FAIR      20  10  65 SW7       29.94F WCI  11
MEDFORD        FAIR      19   9  64 W9G16     29.98S WCI   8
MERRILL        FAIR      20   9  63 W10       29.97F WCI   9
$$

WIZ029-030-035-036-043>047-180400-
CENTRAL WISCONSIN

CITY           SKY/WX    TMP DP  RH WIND       PRES   REMARKS
WAUSAU         FAIR      20   8  60 SW7G16    29.98F WCI  11
MOSINEE        PTCLDY    19  10  68 SW13      30.00F WCI   7
MARSHFIELD     FAIR      19   9  65 W14       29.99F WCI   6
STEVENS POINT  FAIR      19   8  61 W12G18    30.03S WCI   7
WAUPACA        FAIR      23   9  53 SW13G21   30.04F WCI  12
WAUTOMA        FAIR      19   9  65 SW17      30.06F WCI   4
WISC RAPIDS    FAIR      19   7  59 W10       30.05F WCI   7
CAMP DOUGLAS   CLEAR     21  10  63 SW13      30.07F WCI   9
$$

WIZ011>013-019>022-031-037>040-048>050-180400-
NORTHEAST WISCONSIN

CITY           SKY/WX    TMP DP  RH WIND       PRES   REMARKS
ANTIGO         FAIR      19   8  62 W15G25    29.93F WCI   5
SHAWANO        FAIR      25   9  51 W15       29.96F WCI  12
OCONTO         FAIR      23   8  52 W13G20    29.96S WCI  11
STURGEON BAY   FAIR      21  10  62 SW17G25   29.94F WCI   7
GREEN BAY      FAIR      21   7  54 SW15G25   29.99F WCI   8
MANITOWOC      FLURRIES  20  10  65 SW21G31   30.00F WCI   4
APPLETON       CLEAR     19   7  58 SW20G25   30.00F WCI   4
CLINTONVILLE   FAIR      23   9  54 W15G23    30.00F WCI  10
OSHKOSH        FAIR      19   8  62 SW9G21    30.05F WCI   8
$$

WIZ032>034-041-042-053>061-180400-
SOUTHWEST WISCONSIN

CITY           SKY/WX    TMP DP  RH WIND       PRES   REMARKS
LA CROSSE      FAIR      20  10  65 S8        30.14F WCI  10
SPARTA         FAIR      22  12  64 SW8       30.11F WCI  13
VIROQUA        FAIR      19  12  72 SW17G24   30.12F WCI   4
BOSCOBEL       FAIR      20   8  60 SW8       30.20F WCI  10
PRAIRIE DU CHI FAIR      22   8  54 SW14G21   30.22F WCI   9
PLATTEVILLE    FAIR      19  11  69 SW14      30.23S WCI   6
$$

WIZ056-057-062-063-064-067-068-180400-
SOUTH CENTRAL WISCONSIN

CITY           SKY/WX    TMP DP  RH WIND       PRES   REMARKS
REEDSBURG      FAIR      19   8  63 SW15G23   30.13F WCI   5
BARABOO/DELLS  FAIR      19   8  64 SW16G23   30.10F WCI   4
LONE ROCK      NOT AVBL
MINERAL POINT  FAIR      21  12  68 SW13      30.19S WCI   9
MADISON        FAIR      18   9  68 SW10G24   30.16F WCI   6
MIDDLETON      FAIR      20  10  65 SW17G24   30.16F WCI   6
WATERTOWN      FAIR      17  10  76 SW14      30.16S WCI   3
MONROE         FAIR      18  10  73 SW22G28   30.19F WCI   0
JANESVILLE     CLEAR     18  10  73 SW14      30.22F WCI   4
$$

WIZ051-052-058>065-066-070>072-180400-
SOUTHEAST WISCONSIN

CITY           SKY/WX    TMP DP  RH WIND       PRES   REMARKS
MILWAUKEE      FAIR      20  10  65 SW17G36   30.13F BLWGSNOWWCI   5
WAUKESHA       CLEAR     16   9  73 SW20G30   30.14F WCI  -1
MILWAUKEE/TIMM CLEAR     18   9  68 SW23G29   30.13F WCI   0
RACINE         FAIR      18   9  68 SW20G33   30.16F WCI   2
BURLINGTON     FAIR      18   9  68 SW18G24   30.19F WCI   2
KENOSHA        FAIR      17  10  74 SW30G41   30.16F WCI  -3
FOND DU LAC    FAIR      19   7  59 SW14G22   30.08S WCI   6
SHEBOYGAN      FAIR      20  10  65 W21G31    30.03F WCI   4
WEST BEND      FAIR      18  10  73 SW10G26   30.08F WCI   6
JUNEAU         FAIR      17   9  71 SW17      30.12F WCI   1
$$

LSZ147-162-180400-
LAKE SUPERIOR

STATION/POSITION TIME  TEMP    WIND        PRES    WAVE
                       AIR SEA DIR/SP/G            HT/PER
                 (UTC) (F)     (DEG/KT/KT) (MB)    (FT/S)
DEVILS ISLAND    0200   28     230/ 24/ 32 1011.9S
SAXON HARBOR     0240   25     200/  9/ 11 1012.5R
$$

LMZ867-665-643>646-180400-
LAKE MICHIGAN

STATION/POSITION TIME  TEMP    WIND        PRES    WAVE
                       AIR SEA DIR/SP/G            HT/PER
                 (UTC) (F)     (DEG/KT/KT) (MB)    (FT/S)
NORTHPORT PIER   0244   22     210/ 11     1013.2S
KEWAUNEE LAKESHO 0230   21     240/ 16/ 25 1014.5F
SHEBOYGAN LAKESH 0200   21     230/ 18/ 21 1019.1F
PORT WASHINGTON  0230   20     240/ 15/ 25 1019.6F
MILWAUKEE LAKESH 0230   21     250/ 23/ 28   N/A
KENOSHA   LAKESH 0200   19     240/ 19/ 26 1023.4
$$

TC  - TEMPERATURE IN CELSIUS
VSB - VISIBILITY IN STATUTE MILES
WCI - WIND CHILL INDEX
HX  - HEAT INDEX





USA.gov is the U.S. government's official web portal to all federal, state and local government web resources and services.